Regional Weather Roundup
Issued by NWS

Home | Current Version | Previous Version | Graphics & Text | Print | Product List | Glossary On
Versions: 1 2 3 4 5 6 7 8 9 10 11 12 13 14 15 16 17 18 19 20 21 22 23 24 25 26 27 28 29 30 31 32 33 34 35 36 37 38 39 40 41 42 43 44 45 46 47 48 49 50
000
ASUS43 KMPX 271901
RWRMN
WEATHER ROUNDUP FOR MINNESOTA
NATIONAL WEATHER SERVICE TWIN CITIES/CHANHASSEN MN
200 PM CDT THU JUL 27 2017


NOTE: "FAIR" INDICATES FEW OR NO CLOUDS BELOW 12,000 FEET WITH NO
SIGNIFICANT WEATHER AND/OR OBSTRUCTIONS TO VISIBILITY. N/A MEANS
CURRENT SKY AND/OR WEATHER CONDITIONS ARE NOT AVAILABLE.

MNZ060>063-068>070-272000-
   Twin Cities Metro

CITY           SKY/WX    TMP DP  RH WIND       PRES   REMARKS
TWIN CITIES    MOSUNNY   84  59  42 NE9       30.07S
ST PAUL        MOSUNNY   84  58  40 NE8       30.06F
CRYSTAL        MOSUNNY   85  57  38 NW9       30.06F
BLAINE         PTSUNNY   84  57  39 NE9       30.07F
LAKEVILLE      SUNNY     81  61  50 N5        30.07S
EDEN PRAIRIE   MOSUNNY   84  59  42 NE6       30.06F
SOUTH ST PAUL  MOSUNNY   81  57  43 N7        30.06S
LAKE ELMO      FAIR      81  61  50 NE6       30.08S
$$
MNZ001>005-007-008-013>017-022>024-027-028-272000-
   Northwest Minnesota

CITY           SKY/WX    TMP DP  RH WIND       PRES   REMARKS
BEMIDJI        MOSUNNY   79  56  45 N9        30.12S
HALLOCK        SUNNY     82  63  51 CALM      30.09F
ROSEAU         SUNNY     81  63  54 W6        30.10F
WARROAD        MOSUNNY   79  66  65 NE3       30.10F
CROOKSTON      MOSUNNY   81  59  47 SW3       30.12S
FOSSTON        SUNNY     81  63  54 CALM      30.13F
DETROIT LAKES  MOSUNNY   79  59  50 N5        30.15S
MOORHEAD       MOSUNNY   81  57  44 NW3       30.13S
PARK RAPIDS    MOSUNNY   81  57  43 VRB6      30.12S
MAHNOMEN       FAIR      79  60  51 NW3       30.13S
$$
MNZ006-009>011-018-025>026-272000-
   North Central Minnesota

CITY           SKY/WX    TMP DP  RH WIND       PRES   REMARKS
BAUDETTE       CLOUDY    81  59  47 NW7       30.10F
FLAG ISLAND    MOSUNNY   82  64  54 CALM      30.09S
INTL FALLS     SUNNY     81  57  43 N5        30.09F
WASKISH        PTSUNNY   81  64  57 W8        30.11S
BIG FORK       CLOUDY    82  57  42 CALM      30.11S
LONGVILLE      SUNNY     81  61  50 W6        30.11F
GRAND RAPIDS   PTSUNNY   79  58  48 CALM      30.12F
CRANE LAKE     SUNNY     79  54  41 CALM      30.10F
ORR            SUNNY     81  52  36 W3        30.08F
COOK             N/A     79  55  44 CALM      30.10F
WALKER         FAIR      79  57  46 NW7       30.12S
$$
MNZ012-019>021-037-272000-
   Northeast Minnesota

CITY           SKY/WX    TMP DP  RH WIND       PRES   REMARKS
DULUTH         MOSUNNY   75  62  64 SE9       30.11S
ELY            PTSUNNY   79  52  38 CALM      30.10S
HIBBING        PTSUNNY   79  56  45 NW9       30.11S
EVELETH        PTSUNNY   78  45  30 NE6       30.12S
DULUTH HARBOR  MOSUNNY   72  64  78 NE8       30.10F
TWO HARBORS    MOSUNNY   75  63  64 SE3       30.10R
GRAND MARAIS     N/A     69  53  56 E6        30.10F
G MARAIS ARPRT SUNNY     72  50  46 S3        30.14F
$$
MNZ029>031-032-039>041-046>048-054>057-064-272000-
   West Central Minnesota

CITY           SKY/WX    TMP DP  RH WIND       PRES   REMARKS
FERGUS FALLS   MOSUNNY   79  59  50 CALM      30.11F
WHEATON        MOSUNNY   81  57  44 NW3       30.13S
MORRIS         MOSUNNY   82  57  42 N3        30.11S
ALEXANDRIA     MOSUNNY   79  57  46 NW6       30.14S
ELBOW LAKE     FAIR      79  60  52 NW7       30.13S HAZE
WADENA         SUNNY     81  55  41 N5        30.12S
GLENWOOD       PTSUNNY   81  57  44 N3        30.13S
APPLETON       MOSUNNY   81  57  44 CALM      30.10F
BENSON         SUNNY     82  57  42 CALM      30.12S
ORTONVILLE     SUNNY    N/A N/A N/A N6          N/A
MADISON        SUNNY     84  61  45 N5        30.11S
WILLMAR        FAIR      81  63  54 W3        30.12F
$$
MNZ033>034-036-042>043-049>051-058-059-272000-
   Central Minnesota

CITY           SKY/WX    TMP DP  RH WIND       PRES   REMARKS
ST CLOUD       MOSUNNY   79  60  52 N6        30.09F
SAUK CENTRE    FAIR      79  58  48 W3        30.12S
PAYNESVILLE    CLOUDY    82  56  41 N9        30.11F
AITKIN         MOSUNNY   79  59  50 CALM      30.09F
PINE RIVER     MOSUNNY   79  61  53 CALM      30.14S
BRAINERD       SUNNY     81  57  43 NW5       30.11S
STAPLES        MOSUNNY   81  55  41 W5        30.12S
LONG PRAIRIE   FAIR      79  59  50 N3        30.13F
LITTLE FALLS   MOSUNNY   79  55  44 CALM      30.11S
LITCHFIELD     SUNNY     82  59  44 CALM      30.10F
BUFFALO        MOSUNNY   82  56  40 W6        30.09F
MAPLE LAKE     SUNNY     83  61  46 NW6       30.10S
HUTCHINSON     MOSUNNY   80  64  56 NW3       30.11S
$$
MNZ037-044-045-052-053-272000-
   East Central Minnesota

CITY           SKY/WX    TMP DP  RH WIND       PRES   REMARKS
PRINCETON      SUNNY     84  59  42 N6        30.10R
MORA           MOSUNNY   79  55  44 NE3       30.11S
CAMBRIDGE      MOSUNNY   84  63  48 N8        30.07F
RUSH CITY      MOSUNNY   81  60  48 N3        30.09S
MOOSE LAKE     SUNNY     79  57  47 CALM      30.08S
HINCKLEY       FAIR      81  61  50 CALM      30.09F
CLOQUET        MOSUNNY   79  55  44 CALM      30.10S
MCGREGOR       PTSUNNY   79  59  50 CALM      30.10F
$$
MNZ071>073-080-081-089-090-097-098-272000-
   Southwest Minnesota

CITY           SKY/WX    TMP DP  RH WIND       PRES   REMARKS
MONTEVIDEO     MOSUNNY   84  61  45 CALM      30.11F
CANBY          MOSUNNY   82  60  46 CALM      30.12F
MARSHALL       MOSUNNY   79  63  57 N8        30.11F
REDWOOD FALLS  SUNNY     82  60  47 MISG      30.09F
OLIVIA         MOSUNNY   79  61  53 N6        30.10F
PIPESTONE      MOSUNNY   81  61  50 NE3       30.13F
WINDOM         SUNNY     79  61  53 N6        30.11S
WORTHINGTON    SUNNY     79  60  52 N10       30.12F
JACKSON        MOSUNNY   77  59  53 N3        30.11F
TRACY          MOSUNNY   78  64  63 N6        30.12S
SLAYTON        HVY RAIN  77  57  50 N6        30.13F
$$
MNZ065>067-074>077-082>085-091>093-272000-
   South Central Minnesota

CITY           SKY/WX    TMP DP  RH WIND       PRES   REMARKS
MANKATO        MOSUNNY   80  61  52 N7        30.08F
NEW ULM        SUNNY     81  59  47 NE8       30.08F
ST JAMES       MOSUNNY   81  63  54 N6        30.09F
FAIRMONT       MOSUNNY   80  64  58 NE6       30.08F
GLENCOE        SUNNY     81  65  59 NW8       30.09S
FARIBAULT      SUNNY     81  63  54 CALM      30.08S
OWATONNA       MOSUNNY   81  64  57 N7        30.07F
WASECA         SUNNY     79  61  53 N3        30.09S
ALBERT LEA     MOSUNNY   81  63  54 N5        30.07S
$$
MNZ078>079-086>088-094>096-272000-
   Southeast Minnesota

CITY           SKY/WX    TMP DP  RH WIND       PRES   REMARKS
ROCHESTER      PTSUNNY   79  64  60 N9        30.07F
RED WING       MOSUNNY   84  55  37 E5        30.04S
STANTON        SUNNY     81  62  51 NE7       30.06S
DODGE CENTER   MOSUNNY   79  63  57 N5        30.08S
WINONA         PTSUNNY   81  63  54 N3        30.03F
AUSTIN         MOSUNNY   82  61  47 N5        30.06S
PRESTON        MOSUNNY   79  62  56 N6        30.06F
$$
ABBREVIATIONS USED IN REMARKS
   TC - TEMPERATURES IN CELSIUS
  WCI - WIND CHILL INDEX
   HX - HEAT INDEX
  VSB - VISIBILITY
$$



USA.gov is the U.S. government's official web portal to all federal, state and local government web resources and services.